| time (UTC) | temp F | wind direction | speed MPH | gust MPH | rain 1hr in | rain 24hr in | rain mn in | humidity % | barometer mb |
| 20260504204531 | 66 | 236 | 7.0 | 14.0 | 0.00 | 0.00 | 0.00 | 43 | 1005.5 |
| 20260504203025 | 65 | 266 | 7.0 | 18.0 | 0.00 | 0.00 | 0.00 | 47 | 1005.5 |
| 20260504201519 | 65 | 270 | 8.0 | 15.0 | 0.00 | 0.00 | 0.00 | 47 | 1005.4 |
| 20260504200018 | 65 | 240 | 10.0 | 19.0 | 0.00 | 0.00 | 0.00 | 44 | 1005.5 |
| 20260504194600 | 65 | 279 | 9.0 | 19.0 | 0.00 | 0.00 | 0.00 | 46 | 1005.7 |
| 20260504193058 | 64 | 291 | 11.0 | 20.0 | 0.00 | 0.00 | 0.00 | 46 | 1005.6 |
| 20260504191554 | 64 | 233 | 11.0 | 18.0 | 0.00 | 0.00 | 0.00 | 46 | 1005.6 |
| 20260504190053 | 63 | 258 | 7.0 | 16.0 | 0.00 | 0.00 | 0.00 | 52 | 1005.7 |
| 20260504184547 | 63 | 276 | 11.0 | 19.0 | 0.00 | 0.00 | 0.00 | 47 | 1005.9 |
| 20260504183043 | 61 | 269 | 8.0 | 13.0 | 0.00 | 0.00 | 0.00 | 53 | 1005.8 |
| 20260504181541 | 61 | 289 | 4.0 | 17.0 | 0.00 | 0.00 | 0.00 | 53 | 1006.1 |
| 20260504180040 | 60 | 264 | 9.0 | 16.0 | 0.00 | 0.00 | 0.00 | 54 | 1006.2 |
| 20260504174540 | 60 | 282 | 11.0 | 18.0 | 0.00 | 0.00 | 0.00 | 52 | 1006.1 |
| 20260504173040 | 60 | 276 | 7.0 | 13.0 | 0.00 | 0.00 | 0.00 | 57 | 1006.1 |
| 20260504171538 | 60 | 276 | 11.0 | 19.0 | 0.00 | 0.00 | 0.00 | 52 | 1006.2 |
| 20260504081549 | 39 | 355 | 0.0 | 1.0 | 0.00 | 0.00 | 0.00 | 84 | 1009.1 |
| 20260504044527 | 38 | 4 | 1.0 | 1.0 | 0.00 | 0.00 | 0.00 | 80 | 1008.8 |
| 20260504043022 | 39 | 2 | 0.0 | 1.0 | 0.00 | 0.00 | 0.00 | 79 | 1008.8 |
| 20260504041535 | 40 | 2 | 0.0 | 1.0 | 0.00 | 0.00 | 0.00 | 77 | 1008.8 |
| 20260504040021 | 39 | 2 | 0.0 | 1.0 | 0.00 | 0.00 | 0.00 | 75 | 1008.6 |
| 20260504034515 | 40 | 2 | 0.0 | 1.0 | 0.00 | 0.05 | 0.00 | 74 | 1008.6 |
| 20260504033012 | 41 | 2 | 0.0 | 1.0 | 0.00 | 0.05 | 0.00 | 74 | 1008.6 |
| 20260504031512 | 43 | 279 | 1.0 | 3.0 | 0.00 | 0.05 | 0.00 | 76 | 1008.5 |
| 20260504030010 | 43 | 279 | 3.0 | 5.0 | 0.00 | 0.05 | 0.00 | 73 | 1008.5 |
| 20260504024553 | 42 | 289 | 1.0 | 4.0 | 0.00 | 0.09 | 0.00 | 72 | 1008.6 |
| 20260504023049 | 42 | 1 | 0.0 | 2.0 | 0.00 | 0.09 | 0.00 | 68 | 1008.6 |
| 20260504021552 | 42 | 354 | 0.0 | 3.0 | 0.00 | 0.09 | 0.00 | 67 | 1008.7 |
| 20260504020053 | 43 | 354 | 0.0 | 2.0 | 0.00 | 0.09 | 0.00 | 65 | 1008.5 |
| 20260504014547 | 44 | 287 | 0.0 | 4.0 | 0.00 | 0.09 | 0.00 | 63 | 1008.4 |
| 20260504013102 | 45 | 272 | 3.0 | 7.0 | 0.00 | 0.09 | 0.00 | 64 | 1008.6 |
| 20260504011546 | 45 | 285 | 2.0 | 6.0 | 0.00 | 0.09 | 0.00 | 61 | 1008.5 |
| 20260504010045 | 45 | 41 | 2.0 | 5.0 | 0.00 | 0.09 | 0.00 | 60 | 1008.2 |
| 20260504004545 | 45 | 27 | 1.0 | 5.0 | 0.00 | 0.09 | 0.00 | 59 | 1007.9 |
| 20260504003044 | 46 | 297 | 1.0 | 7.0 | 0.00 | 0.09 | 0.00 | 58 | 1007.8 |
| 20260504001547 | 46 | 323 | 3.0 | 8.0 | 0.00 | 0.09 | 0.00 | 57 | 1007.7 |
| 20260504000044 | 47 | 300 | 3.0 | 9.0 | 0.00 | 0.09 | 0.00 | 54 | 1007.4 |
| 20260503234544 | 47 | 276 | 1.0 | 6.0 | 0.00 | 0.09 | 0.00 | 55 | 1007.4 |
| 20260503233044 | 47 | 300 | 1.0 | 5.0 | 0.00 | 0.09 | 0.00 | 54 | 1007.3 |
| 20260503231543 | 47 | 312 | 4.0 | 8.0 | 0.00 | 0.09 | 0.00 | 53 | 1007.4 |
| 20260503230043 | 48 | 237 | 1.0 | 10.0 | 0.00 | 0.09 | 0.00 | 52 | 1007.2 |
| 20260503224540 | 48 | 271 | 2.0 | 6.0 | 0.00 | 0.10 | 0.00 | 53 | 1007.2 |
| 20260503223039 | 48 | 304 | 1.0 | 6.0 | 0.00 | 0.10 | 0.00 | 54 | 1007.1 |
| 20260503221537 | 49 | 308 | 3.0 | 10.0 | 0.00 | 0.10 | 0.00 | 56 | 1006.9 |
| 20260503220037 | 49 | 307 | 4.0 | 8.0 | 0.00 | 0.10 | 0.00 | 53 | 1006.7 |
| 20260503214540 | 49 | 292 | 1.0 | 9.0 | 0.00 | 0.10 | 0.00 | 51 | 1006.7 |
| 20260503213103 | 49 | 287 | 5.0 | 9.0 | 0.00 | 0.10 | 0.00 | 49 | 1006.7 |
| 20260503211600 | 49 | 293 | 4.0 | 15.0 | 0.00 | 0.10 | 0.00 | 50 | 1006.6 |
| 20260503210059 | 50 | 272 | 6.0 | 14.0 | 0.00 | 0.10 | 0.00 | 52 | 1006.3 |